Time,TemperatureF,DewpointF,PressureIn,WindDirection,WindDirectionDegrees,WindSpeedMPH,WindSpeedGustMPH,Humidity,HourlyPrecipIn,Conditions,Clouds,dailyrainin,SoftwareType,DateUTC
2013-06-24 00:06:00,71.6,70.0,30.08,East,89,0.0,0.0,94,0.00,,,0.00,weatherlink.com 1.10,2013-06-24 04:06:00,
2013-06-24 00:21:00,71.5,70.0,30.08,ESE,121,0.0,0.0,95,0.00,,,0.00,weatherlink.com 1.10,2013-06-24 04:21:00,
2013-06-24 00:36:00,71.5,70.0,30.08,SE,126,0.0,1.0,95,0.00,,,0.00,weatherlink.com 1.10,2013-06-24 04:36:00,
2013-06-24 00:51:00,71.4,70.0,30.08,SE,126,0.0,0.0,95,0.00,,,0.00,weatherlink.com 1.10,2013-06-24 04:51:00,
2013-06-24 01:06:00,71.2,70.0,30.08,SE,126,0.0,0.0,95,0.00,,,0.00,weatherlink.com 1.10,2013-06-24 05:06:00,
2013-06-24 01:21:00,71.1,70.0,30.08,SE,127,0.0,0.0,95,0.00,,,0.00,weatherlink.com 1.10,2013-06-24 05:21:00,
2013-06-24 01:36:00,71.1,70.0,30.07,ESE,108,0.0,1.0,96,0.00,,,0.00,weatherlink.com 1.10,2013-06-24 05:36:00,
2013-06-24 01:51:00,70.9,70.0,30.07,ESE,108,0.0,0.0,96,0.00,,,0.00,weatherlink.com 1.10,2013-06-24 05:51:00,
2013-06-24 02:06:00,70.8,70.0,30.07,SSW,194,0.0,1.0,96,0.00,,,0.00,weatherlink.com 1.10,2013-06-24 06:06:00,
2013-06-24 02:52:00,70.7,70.0,30.06,NNE,18,0.0,0.0,96,0.00,,,0.00,weatherlink.com 1.10,2013-06-24 06:52:00,
2013-06-24 03:07:00,70.7,70.0,30.06,NNE,21,0.0,1.0,96,0.00,,,0.00,weatherlink.com 1.10,2013-06-24 07:07:00,
2013-06-24 03:22:00,70.6,70.0,30.06,SSW,208,2.0,2.0,96,0.00,,,0.00,weatherlink.com 1.10,2013-06-24 07:22:00,
2013-06-24 03:37:00,70.6,70.0,30.06,South,177,0.0,0.0,96,0.00,,,0.00,weatherlink.com 1.10,2013-06-24 07:37:00,
2013-06-24 03:52:00,70.5,69.0,30.06,South,177,0.0,1.0,96,0.00,,,0.00,weatherlink.com 1.10,2013-06-24 07:52:00,
2013-06-24 04:07:00,70.4,69.0,30.05,South,177,0.0,0.0,96,0.00,,,0.00,weatherlink.com 1.10,2013-06-24 08:07:00,
2013-06-24 04:22:00,70.3,69.0,30.05,South,177,0.0,0.0,96,0.00,,,0.00,weatherlink.com 1.10,2013-06-24 08:22:00,
2013-06-24 04:37:00,70.2,69.0,30.05,South,177,0.0,1.0,96,0.00,,,0.00,weatherlink.com 1.10,2013-06-24 08:37:00,
2013-06-24 04:52:00,70.3,69.0,30.05,SSW,193,0.0,2.0,97,0.00,,,0.00,weatherlink.com 1.10,2013-06-24 08:52:00,
2013-06-24 05:07:00,70.3,69.0,30.06,SSW,194,0.0,1.0,97,0.00,,,0.00,weatherlink.com 1.10,2013-06-24 09:07:00,
2013-06-24 05:22:00,70.2,69.0,30.05,South,190,0.0,1.0,97,0.00,,,0.00,weatherlink.com 1.10,2013-06-24 09:22:00,
2013-06-24 05:37:00,70.1,69.0,30.05,South,190,0.0,0.0,97,0.00,,,0.00,weatherlink.com 1.10,2013-06-24 09:37:00,
2013-06-24 05:52:00,70.1,69.0,30.06,South,190,0.0,0.0,97,0.00,,,0.00,weatherlink.com 1.10,2013-06-24 09:52:00,
2013-06-24 06:07:00,70.2,69.0,30.06,South,189,0.0,0.0,97,0.00,,,0.00,weatherlink.com 1.10,2013-06-24 10:07:00,
2013-06-24 06:22:00,70.1,69.0,30.06,South,188,0.0,0.0,97,0.00,,,0.00,weatherlink.com 1.10,2013-06-24 10:22:00,
2013-06-24 06:37:00,70.2,69.0,30.06,SSW,193,1.0,1.0,97,0.00,,,0.00,weatherlink.com 1.10,2013-06-24 10:37:00,
2013-06-24 07:07:00,70.8,70.0,30.06,SSE,166,0.0,1.0,97,0.00,,,0.00,weatherlink.com 1.10,2013-06-24 11:07:00,
2013-06-24 07:22:00,71.3,70.0,30.07,South,173,0.0,1.0,97,0.00,,,0.00,weatherlink.com 1.10,2013-06-24 11:22:00,
2013-06-24 07:37:00,71.9,71.0,30.07,South,172,0.0,0.0,96,0.00,,,0.00,weatherlink.com 1.10,2013-06-24 11:37:00,
2013-06-24 07:52:00,72.8,71.0,30.07,South,169,0.0,0.0,94,0.00,,,0.00,weatherlink.com 1.10,2013-06-24 11:52:00,
2013-06-24 08:07:00,73.7,71.0,30.07,South,169,0.0,0.0,91,0.00,,,0.00,weatherlink.com 1.10,2013-06-24 12:07:00,
2013-06-24 08:22:00,74.9,72.0,30.07,SSE,159,0.0,0.0,90,0.00,,,0.00,weatherlink.com 1.10,2013-06-24 12:22:00,
2013-06-24 08:37:00,76.3,72.0,30.07,SSE,159,0.0,0.0,87,0.00,,,0.00,weatherlink.com 1.10,2013-06-24 12:37:00,
2013-06-24 08:52:00,78.2,73.0,30.07,SSE,154,0.0,0.0,83,0.00,,,0.00,weatherlink.com 1.10,2013-06-24 12:52:00,
2013-06-24 09:07:00,80.1,72.0,30.07,SSE,153,0.0,0.0,77,0.00,,,0.00,weatherlink.com 1.10,2013-06-24 13:07:00,
2013-06-24 09:37:00,82.1,73.0,30.07,SSE,148,0.0,1.0,73,0.00,,,0.00,weatherlink.com 1.10,2013-06-24 13:37:00,
2013-06-24 09:52:00,82.9,73.0,30.07,SE,146,0.0,0.0,72,0.00,,,0.00,weatherlink.com 1.10,2013-06-24 13:52:00,
2013-06-24 10:07:00,82.9,72.0,30.07,SSE,150,0.0,1.0,70,0.00,,,0.00,weatherlink.com 1.10,2013-06-24 14:07:00,
2013-06-24 10:22:00,82.7,72.0,30.06,SSE,158,0.0,0.0,70,0.00,,,0.00,weatherlink.com 1.10,2013-06-24 14:22:00,
2013-06-24 10:37:00,83.0,73.0,30.06,SSE,148,0.0,0.0,71,0.00,,,0.00,weatherlink.com 1.10,2013-06-24 14:37:00,
2013-06-24 11:07:00,84.5,72.0,30.07,SSE,148,0.0,0.0,67,0.00,,,0.00,weatherlink.com 1.10,2013-06-24 15:07:00,
2013-06-24 11:38:00,85.2,71.0,30.06,South,183,0.0,1.0,63,0.00,,,0.00,weatherlink.com 1.10,2013-06-24 15:38:00,
2013-06-24 11:53:00,85.7,72.0,30.06,South,183,0.0,2.0,63,0.00,,,0.00,weatherlink.com 1.10,2013-06-24 15:53:00,
2013-06-24 12:08:00,86.5,73.0,30.06,NNW,334,1.0,3.0,64,0.00,,,0.00,weatherlink.com 1.10,2013-06-24 16:08:00,
2013-06-24 12:23:00,87.2,72.0,30.06,South,174,0.0,3.0,61,0.00,,,0.00,weatherlink.com 1.10,2013-06-24 16:23:00,
2013-06-24 13:08:00,87.7,69.0,30.05,SSW,195,1.0,2.0,54,0.00,,,0.00,weatherlink.com 1.10,2013-06-24 17:08:00,
2013-06-24 13:23:00,87.9,67.0,30.05,SSW,194,1.0,3.0,50,0.00,,,0.00,weatherlink.com 1.10,2013-06-24 17:23:00,
2013-06-24 13:38:00,88.0,67.0,30.04,ESE,110,0.0,3.0,50,0.00,,,0.00,weatherlink.com 1.10,2013-06-24 17:38:00,
2013-06-24 13:53:00,89.2,68.0,30.03,SSE,166,0.0,0.0,50,0.00,,,0.00,weatherlink.com 1.10,2013-06-24 17:53:00,
2013-06-24 14:08:00,90.0,70.0,30.02,ESE,107,0.0,2.0,52,0.00,,,0.00,weatherlink.com 1.10,2013-06-24 18:08:00,
2013-06-24 14:23:00,91.4,70.0,30.01,West,273,1.0,2.0,49,0.00,,,0.00,weatherlink.com 1.10,2013-06-24 18:23:00,
2013-06-24 14:38:00,92.3,68.0,30.00,SE,146,0.0,2.0,45,0.00,,,0.00,weatherlink.com 1.10,2013-06-24 18:38:00,
2013-06-24 14:53:00,92.5,68.0,29.99,SSW,194,1.0,2.0,45,0.00,,,0.00,weatherlink.com 1.10,2013-06-24 18:53:00,
2013-06-24 15:08:00,89.6,68.0,30.00,ESE,113,0.0,1.0,49,0.00,,,0.00,weatherlink.com 1.10,2013-06-24 19:08:00,
2013-06-24 15:23:00,87.4,68.0,30.00,ESE,112,0.0,0.0,52,0.00,,,0.00,weatherlink.com 1.10,2013-06-24 19:23:00,
2013-06-24 15:38:00,85.4,66.0,30.00,ESE,111,0.0,0.0,52,0.00,,,0.00,weatherlink.com 1.10,2013-06-24 19:38:00,
2013-06-24 15:53:00,84.4,67.0,30.00,SE,143,0.0,0.0,56,0.00,,,0.00,weatherlink.com 1.10,2013-06-24 19:53:00,
2013-06-24 16:08:00,84.1,67.0,30.00,WNW,287,0.0,3.0,56,0.00,,,0.00,weatherlink.com 1.10,2013-06-24 20:08:00,
2013-06-24 16:23:00,84.1,67.0,29.99,SE,139,0.0,1.0,56,0.00,,,0.00,weatherlink.com 1.10,2013-06-24 20:23:00,
2013-06-24 16:38:00,83.9,68.0,29.99,East,96,1.0,2.0,59,0.00,,,0.00,weatherlink.com 1.10,2013-06-24 20:38:00,
2013-06-24 16:53:00,82.4,67.0,29.98,East,85,0.0,5.0,60,0.00,,,0.00,weatherlink.com 1.10,2013-06-24 20:53:00,
2013-06-24 17:08:00,81.9,67.0,29.97,ESE,111,0.0,3.0,61,0.00,,,0.00,weatherlink.com 1.10,2013-06-24 21:08:00,
2013-06-24 17:23:00,82.0,67.0,29.97,SSW,195,1.0,4.0,61,0.00,,,0.00,weatherlink.com 1.10,2013-06-24 21:23:00,
2013-06-24 17:53:00,82.4,69.0,29.98,ESE,119,0.0,2.0,65,0.00,,,0.00,weatherlink.com 1.10,2013-06-24 21:53:00,
2013-06-24 18:08:00,81.2,69.0,29.98,ESE,105,0.0,1.0,67,0.00,,,0.00,weatherlink.com 1.10,2013-06-24 22:08:00,
2013-06-24 18:38:00,79.8,69.0,30.00,ESE,119,0.0,2.0,70,0.00,,,0.00,weatherlink.com 1.10,2013-06-24 22:38:00,
2013-06-24 19:08:00,77.9,61.0,29.99,SE,138,0.0,1.0,57,0.00,,,0.00,weatherlink.com 1.10,2013-06-24 23:08:00,
2013-06-24 19:23:00,74.6,63.0,29.98,ESE,113,0.0,2.0,67,0.00,,,0.00,weatherlink.com 1.10,2013-06-24 23:23:00,
2013-06-24 19:38:00,72.5,63.0,29.96,SE,136,0.0,1.0,73,0.00,,,0.00,weatherlink.com 1.10,2013-06-24 23:38:00,
2013-06-24 19:53:00,72.4,63.0,29.97,SE,136,0.0,0.0,72,0.00,,,0.00,weatherlink.com 1.10,2013-06-24 23:53:00,
2013-06-24 20:23:00,72.0,63.0,29.99,SE,139,0.0,1.0,74,0.00,,,0.00,weatherlink.com 1.10,2013-06-25 00:23:00,
2013-06-24 20:38:00,71.5,63.0,29.99,SE,134,0.0,1.0,74,0.00,,,0.00,weatherlink.com 1.10,2013-06-25 00:38:00,
2013-06-24 20:53:00,71.7,63.0,29.99,SE,134,0.0,0.0,73,0.00,,,0.00,weatherlink.com 1.10,2013-06-25 00:53:00,
2013-06-24 21:08:00,71.6,63.0,30.00,SE,134,0.0,0.0,74,0.00,,,0.00,weatherlink.com 1.10,2013-06-25 01:08:00,
2013-06-24 21:23:00,71.6,63.0,30.00,SE,134,0.0,0.0,75,0.00,,,0.00,weatherlink.com 1.10,2013-06-25 01:23:00,
2013-06-24 21:38:00,71.4,64.0,30.02,SE,134,0.0,0.0,76,0.00,,,0.00,weatherlink.com 1.10,2013-06-25 01:38:00,
2013-06-24 21:53:00,71.1,64.0,30.02,SE,134,0.0,1.0,78,0.00,,,0.00,weatherlink.com 1.10,2013-06-25 01:53:00,
2013-06-24 22:08:00,70.8,64.0,30.02,SE,134,0.0,0.0,79,0.00,,,0.00,weatherlink.com 1.10,2013-06-25 02:08:00,
2013-06-24 22:38:00,70.3,64.0,30.01,SE,134,0.0,0.0,79,0.00,,,0.00,weatherlink.com 1.10,2013-06-25 02:38:00,
2013-06-24 22:53:00,70.6,65.0,30.01,SE,134,0.0,0.0,81,0.00,,,0.00,weatherlink.com 1.10,2013-06-25 02:53:00,
2013-06-24 23:08:00,70.7,64.0,30.01,SE,134,0.0,0.0,80,0.00,,,0.00,weatherlink.com 1.10,2013-06-25 03:08:00,
2013-06-24 23:24:00,70.8,64.0,30.01,SE,134,0.0,0.0,80,0.00,,,0.00,weatherlink.com 1.10,2013-06-25 03:24:00,
2013-06-24 23:39:00,71.0,65.0,30.02,SE,134,0.0,0.0,81,0.00,,,0.00,weatherlink.com 1.10,2013-06-25 03:39:00,
2013-06-24 23:54:00,70.8,65.0,30.01,SE,134,0.0,0.0,82,0.00,,,0.00,weatherlink.com 1.10,2013-06-25 03:54:00,